Location: Unspecified
(49.9820°N, 20.4363°E)
Time: 00:19:48
(UTC+02:00)

ISS - Pass Details

Date: 20 May 2018
Orbit: 402 x 407 km, 51.6° (Epoch: 24 May)

Event Time Altitude Azimuth Distance (km) Brightness Sun altitude
Rises 23:08:23 0° 243° (WSW) 2,314 0.0 -17.3°
Reaches altitude 10° 23:10:28 10° 241° (WSW) 1,456 -1.1 -17.5°
Maximum altitude 23:13:42 67° 158° (SSE) 441 -4.0 -17.6°
Drops below altitude 10° 23:16:58 10° 75° (ENE) 1,460 -1.1 -17.8°
Sets 23:19:03 0° 73° (ENE) 2,321 0.0 -17.9°
